This is the latest recevied weather packets stored in our database for station/object EA1L-13. If no packets are shown the sender has not sent any weather packets the latest 10 day(s).
| Time | Temp. | Humidity | Pressure | Rain* | Wind** | Luminosity | Snow |
|---|---|---|---|---|---|---|---|
| 1778072405 | 13.33° C | 67% | 1012.4 hPa | 0 mm | - | - | - |
| 1778071504 | 13.33° C | 69% | 1012.6 hPa | 0 mm | - | - | - |
| 1778070605 | 13.33° C | 69% | 1012.6 hPa | 0 mm | - | - | - |
| 1778069704 | 13.33° C | 65% | 1012.5 hPa | 0 mm | - | - | - |
| 1778068804 | 13.89° C | 60% | 1012.4 hPa | 0 mm | - | - | - |
| 1778067904 | 15° C | 60% | 1012.6 hPa | 0 mm | - | - | - |
| 1778067005 | 14.44° C | 62% | 1012.7 hPa | 0 mm | - | - | - |
| 1778066104 | 13.33° C | 65% | 1012.8 hPa | 0 mm | - | - | - |
| 1778065205 | 13.33° C | 71% | 1012.8 hPa | 0 mm | - | - | - |
| 1778064304 | 13.33° C | 79% | 1012.9 hPa | 0 mm | - | - | - |
| 1778063405 | 13.33° C | 99% | 1012.9 hPa | 0 mm | - | - | - |
| 1778062504 | 13.89° C | 100% | 1012.9 hPa | 0 mm | - | - | - |
| 1778061605 | 13.89° C | 100% | 1013 hPa | 0 mm | - | - | - |
| 1778060704 | 13.89° C | 100% | 1013 hPa | 0 mm | - | - | - |
| 1778059804 | 13.89° C | 100% | 1013 hPa | 0 mm | - | - | - |
| 1778058904 | 13.33° C | 100% | 1013.1 hPa | 0 mm | - | - | - |
| 1778058004 | 13.33° C | 100% | 1012.9 hPa | 0 mm | - | - | - |
| 1778057104 | 13.33° C | 100% | 1013.1 hPa | 0 mm | - | - | - |
| 1778056205 | 12.78° C | 100% | 1013.1 hPa | 0 mm | - | - | - |
| 1778055304 | 12.78° C | 100% | 1013.2 hPa | 0 mm | - | - | - |
| 1778054404 | 12.22° C | 100% | 1013.1 hPa | 0 mm | - | - | - |
| 1778053505 | 12.22° C | 100% | 1013.1 hPa | 0 mm | - | - | - |
| 1778052605 | 11.67° C | 100% | 1013 hPa | 0 mm | - | - | - |
| 1778051704 | 11.67° C | 100% | 1013 hPa | 0 mm | - | - | - |
| 1778050805 | 11.11° C | 100% | 1012.9 hPa | 0.25 mm | - | - | - |
* Rain latest hour (hover to see other rain measurements)
** Current wind speed in m/s (hover to see current wind gust speed)